SCP
0 0 0 0 0 0 0 0 0 0 0 0 0 0 0 0 0 0 0 0 0 0 0 0 0 0 0 0 0 0 0 0 0 0 0 0 0 0 0 0 0 0 0
0 0 0 0 0 0 0 0 0 0 0 0 0 0 0 0 0 0 0 0 0 0 0 0 0 0 0 0 0 0 0 0 0 0 0 0 0 0 0 0 0 0 0
0 0 0 0 0 0 0 0 0 0 0 0 0 0 0 0 0 0 0 0 0 0 0 0 0 0 0 0 0 0 0 0 0 0 0 0 0 0 0 0 0 0 0
0 0 0 0 0 0 0 0 0 0 0 0 0 0 0 0 0 0 0 0 0 0 0 0 0 0 0 0 0 0 0 0 0 0 0 0 0 0 0 0 0 0 0
0 0 0 0 0 0 0 0 0 0 0 0 0 0 0 0 0 0 0 0 0 0 0 0 0 0 0 0 0 0 0 0 0 0 0 0 0 0 0 0 0 0 0
0 0 0 0 0 0 0 0 0 0 0 0 0 0 0 0 0 0 0 0 0 0 0 0 0 0 0 0 0 0 0 0 0 0 0 0 0 0 0 0 0 0 0
0 0 0 0 0 0 0 0 0 0 0 0 0 0 0 0 0 0 0 0 0 0 0 0 0 0 0 0 0 0 0 0 0 0 0 0 0 0 0 0 0 0 0
0 0 0 0 0 0 0 0 0 0 0 0 0 0 0 0 0 0 0 0 0 0 0 0 0 0 0 0 0 0 0 0 0 0 0 0 0 0 0 0 0 0 0
0 0 0 0 0 0 0 0 0 0 0 0 0 0 0 0 0 0 0 0 0 0 0 0 0 0 0 0 0 0 0 0 0 0 0 0 0 0 0 0 0 0 0
0 0 0 0 0 0 0 0 0 0 0 0 0 0 0 0 0 0 0 0 0 0 0 0 0 0 0 0 0 0 0 0 0 0 0 0 0 0 0 0 0 0 0
0 0 0 0 0 0 0 0 0 0 0 0 0 0 0 0 0 0 0 0 0 0 0 0 0 0 0 0 0 0 0 0 0 0 0 0 0 0 0 0 0 0 0
0 0 0 0 0 0 0 0 0 0 0 0 0 0 0 0 0 0 0 0 0 0 0 0 0 0 0 0 0 0 0 0 0 0 0 0 0 0 0 0 0 0 0
0 0 0 0 0 0 0 0 0 0 0 0 0 0 0 0 0 0 0 0 0 0 0 0 0 0 0 0 0 0 0 0 0 0 0 0 0 0 0 0 0 0 0
0 0 0 0 0 0 0 0 0 0 0 0 0 0 0 0 0 0 0 0 0 0 0 0 0 0 0 0 0 0 0 0 0 0 0 0 0 0 0 0 0 0 0
0 0 0 0 0 0 0 0 0 0 0 0 0 0 0 0 0 0 0 0 0 0 0 0 0 0 0 0 0 0 0 0 0 0 0 0 0 0 0 0 0 0 0
0 0 0 0 0 0 0 0 0 0 0 0 0 0 0 0 0 0 0 0 0 0 0 0 0 0 0 0 0 0 0 0 0 0 0 0 0 0 0 0 0 0 0
0 0 0 0 0 0 0 0 0 0 0 0 0 0 0 0 0 0 0 0 0 0 0 0 0 0 0 0 0 0 0 0 0 0 0 0 0 0 0 0 0 0 0
0 0 0 0 0 0 0 0 0 0 0 0 0 0 0 0 0 0 0 0 0 0 0 0 0 0 0 0 0 0 0 0 0 0 0 0 0 0 0 0 0 0 0
0 0 0 0 0 0 0 0 0 0 0 0 0 0 0 0 0 0 0 0 0 0 0 0 0 0 0 0 0 0 0 0 0 0 0 0 0 0 0 0 0 0 0
0 0 0 0 0 0 0 0 0 0 0 0 0 0 0 0 0 0 0 0 0 0 0 0 0 0 0 0 0 0 0 0 0 0 0 0 0 0 0 0 0 0 0
0 0 0 0 0 0 0 0 0 0 0 0 0 0 0 0 0 0 0 0 0 0 0 0 0 0 0 0 0 0 0 0 0 0 0 0 0 0 0 0 0 0 0
0 0 0 0 0 0 0 0 0 0 0 0 0 0 0 0 0 0 0 0 0 0 0 0 0 0 0 0 0 0 0 0 0 0 0 0 0 0 0 0 0 0 0
0 0 0 0 0 0 0 0 0 0 0 0 0 0 0 0 0 0 0 0 0 0 0 0 0 0 0 0 0 0 0 0 0 0 0 0 0 0 0 0 0 0 0
0 0 0 0 0 0 0 0 0 0 0 0 0 0 0 0 0 0 0 0 0 0 0 0 0 0 0 0 0 0 0 0 0 0 0 0 0 0 0 0 0 0 0
0 0 0 0 0 0 0 0 0 0 0 0 0 0 0 0 0 0 0 0 0 0 0 0 0 0 0 0 0 0 0 0 0 0 0 0 0 0 0 0 0 0 0
0 0 0 0 0 0 0 0 0 0 0 0 0 0 0 0 0 0 0 0 0 0 0 0 0 0 0 0 0 0 0 0 0 0 0 0 0 0 0 0 0 0 0
Wind_Speed
4 5 6 4 3 4 5 6 8 8 9 9 10 10 10 10 10 11 11 11 11 12 12 12 13 13 13 13 14 13 14 14 14 13 13 13 13 14 14 14 12 9 15
4 4 5 3 2 3 5 6 7 7 8 8 9 9 9 10 10 10 11 11 11 11 12 12 12 13 13 13 13 13 13 13 13 13 11 10 11 13 13 13 12 9 14
4 3 3 3 3 4 5 6 7 7 7 8 8 9 9 9 9 10 10 10 11 11 11 12 12 12 12 12 12 12 12 12 12 11 9 5 7 12 12 12 13 13 14
4 3 3 4 3 4 5 6 6 6 7 7 8 8 8 9 9 9 10 10 11 11 11 12 11 11 11 11 11 11 11 11 11 9 5 4 4 10 12 12 13 13 13
5 4 4 5 4 4 5 5 6 6 6 6 7 7 8 8 8 9 10 10 10 10 11 11 11 10 10 10 10 10 10 10 10 7 5 4 4 9 11 12 12 12 12
6 6 5 6 5 4 5 5 5 6 6 6 6 7 7 7 8 9 9 9 9 9 10 10 9 10 10 9 9 10 10 10 8 4 4 4 3 8 10 11 12 11 12
5 6 6 8 7 5 4 5 5 5 6 6 6 6 7 7 8 8 8 8 8 8 8 9 8 9 9 9 9 9 9 8 5 4 3 3 4 9 10 10 11 11 11
4 6 5 8 9 8 5 4 5 6 5 5 6 6 6 7 7 8 8 7 7 8 8 8 8 8 8 8 8 8 8 7 5 4 3 3 5 8 9 10 10 10 10
5 5 5 5 5 7 8 6 4 5 6 6 5 6 6 7 7 7 7 7 7 7 7 7 7 7 7 7 7 8 8 7 4 3 3 2 5 7 8 9 9 10 10
5 5 5 5 5 4 4 7 7 5 6 6 6 6 6 6 6 6 6 6 6 6 6 6 6 6 6 7 7 7 7 5 3 3 2 2 5 7 8 8 9 10 10
5 5 5 5 4 4 3 5 6 6 5 5 5 5 5 3 3 3 4 5 6 6 5 5 6 6 6 6 7 7 5 2 2 2 1 2 4 7 8 8 8 9 9
4 4 4 4 4 4 3 2 2 3 3 3 2 3 2 2 2 3 4 5 5 6 5 6 6 6 4 2 4 5 2 2 2 1 1 2 4 6 7 7 8 8 8
2 3 4 4 3 3 2 1 1 1 2 2 2 2 2 2 2 2 1 2 3 4 3 4 4 2 2 1 1 2 2 2 1 1 1 2 3 5 6 6 7 8 8
2 3 3 3 3 2 2 1 1 1 1 1 2 2 1 1 1 1 1 1 1 1 2 2 2 2 2 1 1 1 1 1 1 1 1 2 2 4 5 5 6 7 7
2 3 3 3 2 2 2 1 1 1 1 1 1 1 1 1 1 1 1 1 1 1 1 1 1 2 1 1 1 1 1 0 1 0 1 1 1 3 4 4 5 5 6
3 3 3 2 2 1 1 1 0 0 1 1 1 1 1 1 1 1 1 1 0 0 1 0 1 1 1 0 0 0 1 0 0 0 0 1 1 1 2 3 4 5 6
4 4 2 2 2 1 0 1 1 0 1 1 1 1 1 1 1 1 2 1 1 0 1 1 1 1 1 1 0 0 1 1 1 0 0 0 0 0 1 3 3 4 5
3 3 3 2 1 1 0 0 0 0 0 0 0 0 1 2 1 1 2 1 1 1 1 1 1 1 0 1 1 1 1 1 1 1 1 0 0 0 1 2 2 3 4
2 3 3 3 2 1 1 0 0 0 0 0 0 0 1 1 1 1 1 2 2 1 1 1 0 0 0 1 1 1 1 1 1 1 1 1 1 1 1 1 2 2 3
3 2 2 3 3 2 1 0 0 0 0 0 0 1 1 1 1 1 1 1 2 2 1 1 1 0 1 0 1 1 1 2 1 2 2 1 1 1 1 1 2 1 2
3 3 2 3 3 2 1 1 1 1 1 1 1 1 1 1 1 1 1 1 2 2 2 2 1 1 0 0 0 1 1 2 2 2 2 2 2 2 2 2 2 2 2
3 3 3 3 3 2 1 2 2 2 2 2 2 1 1 1 1 2 1 1 2 2 2 2 2 1 0 1 1 0 1 2 2 2 2 3 3 2 2 2 2 2 2
3 3 3 4 4 3 2 1 1 1 1 1 2 2 2 2 2 2 2 2 2 3 3 3 3 2 2 2 1 2 2 2 2 2 2 3 3 2 2 3 3 3 3
4 3 3 4 4 3 2 1 1 2 2 3 3 2 2 3 3 2 3 3 3 3 4 4 4 2 4 3 2 1 2 2 2 2 2 2 3 3 3 3 3 3 4
3 3 3 4 4 4 3 2 2 3 3 3 2 3 3 3 3 3 3 4 3 3 4 5 4 3 3 4 3 2 1 1 2 2 3 2 2 3 3 4 3 3 4
4 4 3 4 4 4 3 3 2 3 4 4 3 3 3 3 3 4 4 4 4 3 4 5 6 5 5 4 3 3 2 3 3 2 3 3 3 3 3 3 4 4 4
Wind_Direction
320 315 314 332 41 83 84 81 84 81 79 80 80 79 79 78 77 76 78 78 76 75 78 79 78 78 78 78 78 78 79 79 77 76 76 79 83 84 82 79 75 72 78
309 302 317 346 64 96 93 88 88 84 81 81 81 81 80 79 78 78 79 77 77 77 77 78 78 77 78 79 79 78 79 79 78 75 71 71 78 84 85 83 82 80 80
339 328 319 1 59 100 99 95 92 90 85 83 84 84 83 80 78 78 77 76 75 75 76 77 79 78 77 78 79 80 79 79 80 75 70 63 75 85 89 88 86 85 83
347 346 332 15 56 89 104 102 97 96 92 87 85 85 85 82 79 78 76 75 75 73 75 75 75 76 77 77 79 82 81 80 77 73 61 54 65 86 90 91 88 88 86
2 355 346 25 50 77 93 99 102 101 98 90 86 86 86 83 82 80 77 75 74 74 74 75 75 75 75 77 79 83 84 81 74 67 58 52 56 84 91 92 89 89 89
8 3 357 26 44 65 87 91 96 102 98 91 86 86 87 84 83 81 78 76 73 74 75 75 76 75 74 77 80 82 83 80 72 59 57 54 61 85 90 94 92 92 91
12 8 9 25 35 48 74 90 90 89 94 91 89 88 90 87 85 83 81 78 76 75 79 76 76 76 75 76 80 81 80 79 75 62 56 56 72 88 92 96 95 94 93
26 18 18 25 31 36 47 76 85 84 85 89 88 87 87 86 86 85 82 79 77 77 80 78 76 79 78 76 79 79 74 73 78 68 59 61 83 94 94 97 99 97 96
30 25 19 20 23 28 35 39 64 73 71 74 79 79 76 75 79 81 78 77 77 76 75 74 73 78 79 79 80 77 71 66 65 60 61 60 88 101 100 99 100 100 99
30 25 15 15 18 17 25 35 39 55 63 67 66 67 69 71 73 74 69 67 68 71 72 72 69 74 77 78 82 75 66 61 59 51 41 65 94 106 105 104 102 99 100
17 15 12 11 14 10 19 36 36 44 52 60 61 58 70 76 77 72 55 56 55 57 65 71 68 68 69 75 79 71 61 54 57 45 27 71 106 112 110 107 104 103 101
355 356 7 3 9 8 16 30 29 34 39 49 62 65 74 81 67 63 53 50 49 47 52 57 56 59 58 60 68 63 56 45 52 35 21 67 110 112 116 116 110 110 107
327 347 357 353 357 5 2 19 30 28 29 36 55 67 75 85 75 64 64 50 48 46 46 43 35 36 50 58 68 65 60 48 41 17 4 51 119 122 119 122 120 117 115
337 333 339 351 348 354 352 2 41 42 42 39 28 61 92 99 96 94 88 63 51 44 50 43 30 17 38 52 77 81 64 49 15 10 359 32 113 125 125 124 125 124 122
321 320 325 343 341 341 350 349 42 39 50 43 33 24 84 121 141 132 126 107 66 59 66 51 44 22 19 44 60 93 87 52 5 4 357 27 64 123 137 138 136 133 128
315 306 314 328 321 314 345 351 33 47 42 62 53 17 10 144 162 158 156 149 114 86 77 74 63 37 359 14 63 125 154 190 303 334 16 16 45 89 148 156 152 144 136
308 305 302 311 321 306 347 356 19 58 80 83 42 11 1 341 180 177 170 179 198 161 96 75 49 43 30 358 298 227 198 203 199 239 267 73 357 349 191 167 153 149 142
313 317 311 316 320 302 260 287 327 305 121 101 64 334 347 344 304 184 184 193 200 170 150 149 121 40 5 340 295 268 243 223 218 216 224 185 164 267 217 154 152 150 142
306 317 319 322 310 288 263 204 204 254 197 159 176 216 305 323 320 242 208 199 189 175 171 178 136 106 262 309 289 290 265 229 234 219 211 198 194 174 186 178 154 155 151
318 325 321 327 318 297 312 1 347 1 298 258 235 246 261 292 315 281 255 204 185 178 180 174 183 233 205 241 303 306 282 249 232 221 219 204 206 205 196 185 177 175 168
338 346 338 334 319 322 300 261 252 263 258 255 255 253 258 262 277 282 277 242 193 189 194 182 176 177 191 45 9 325 307 261 232 223 219 206 212 213 200 193 184 185 191
333 336 337 334 324 319 293 251 234 250 252 246 257 257 254 255 257 263 251 244 228 199 190 185 168 174 217 200 160 177 295 291 256 233 216 207 212 204 207 207 193 194 193
330 325 324 326 322 320 324 316 311 299 303 277 267 264 262 251 244 254 248 222 238 210 200 200 188 181 198 235 214 176 182 232 270 262 230 215 206 203 212 209 203 202 201
310 321 331 327 326 330 341 333 264 260 256 262 252 255 262 248 240 243 249 228 226 229 208 208 200 202 188 211 237 238 228 197 206 265 262 230 213 211 213 216 215 212 206
323 321 324 326 331 335 341 315 275 265 259 269 262 255 256 251 244 245 244 232 222 232 221 208 207 208 198 209 214 217 244 268 223 222 248 248 250 230 221 215 213 216 212
349 345 341 330 332 333 334 317 287 274 268 268 268 256 253 251 246 247 249 234 224 228 232 218 208 210 213 213 220 210 204 207 211 221 236 244 251 250 240 223 212 214 210